Wind_Speed
15 15 15 15 14 14 14 14 13 13 14 14 14 14 13 12 12 11 11 11 11 10 10 10 9 9 9 9 9 9 9 8 8 7 7 6 5 4 4 3 2 2 2
17 17 17 16 16 16 16 15 15 15 15 15 15 15 15 14 13 13 12 12 12 12 11 11 11 11 11 10 11 11 10 10 9 9 8 7 7 6 5 4 3 3 3
19 18 18 18 18 17 17 17 17 17 16 16 16 16 16 15 15 15 14 14 14 13 13 13 13 12 12 12 11 12 12 12 11 11 10 9 8 7 6 5 5 4 4
21 20 19 19 19 19 18 18 18 18 18 17 17 17 17 17 17 16 16 15 15 15 14 14 14 14 13 13 12 13 13 13 13 12 12 11 10 9 8 7 7 6 5
21 21 20 20 20 20 20 19 19 19 19 18 18 18 17 17 18 17 17 17 16 16 16 16 16 16 15 14 14 14 15 15 15 14 14 13 12 11 11 10 9 8 7
22 21 21 21 21 21 21 21 21 21 21 20 20 19 19 18 18 18 18 18 18 17 17 17 17 18 17 16 16 15 16 17 16 16 15 15 14 14 13 12 11 10 9
23 23 22 22 23 23 22 22 21 22 22 22 22 21 21 20 20 20 20 19 19 19 19 18 18 18 18 18 17 17 17 17 17 17 17 17 16 15 15 14 13 13 12
24 23 24 24 24 24 23 23 22 23 23 24 24 24 23 23 22 21 21 21 21 20 20 20 19 20 19 18 18 18 18 18 19 18 18 18 18 18 17 16 15 15 14
25 25 25 25 25 25 24 24 24 24 24 25 26 25 25 25 24 23 23 22 22 22 22 21 21 20 21 20 20 19 19 20 20 20 20 19 19 19 19 19 17 17 16
27 27 26 26 26 25 26 25 25 25 25 25 26 27 26 26 26 26 25 24 24 23 23 23 23 22 22 22 22 22 21 21 21 21 22 22 21 21 21 20 20 19 18
27 28 28 28 27 27 27 26 26 25 25 25 26 27 28 28 27 27 27 26 26 25 24 24 24 24 24 23 23 24 24 23 23 23 23 23 23 23 23 23 22 22 21
27 28 29 29 28 28 28 28 27 26 26 26 26 26 27 28 29 29 28 28 27 27 27 26 26 26 26 25 25 25 25 25 25 25 25 24 25 25 25 25 24 24 23
28 28 28 28 29 29 30 30 29 28 28 27 27 27 27 28 29 29 29 29 28 28 28 28 28 28 27 27 27 26 26 27 28 28 27 26 26 27 27 27 27 26 25
29 29 29 29 29 30 30 31 31 30 30 30 30 29 28 28 28 29 29 29 29 29 29 29 29 30 29 29 28 28 28 28 29 29 30 29 29 29 29 29 28 28 28
29 29 30 30 30 30 31 31 31 31 31 31 31 31 31 30 30 30 30 30 30 30 30 31 30 31 31 31 30 30 30 30 30 31 31 31 31 31 31 31 30 30 30
29 30 30 31 31 31 31 31 31 31 32 32 32 33 32 32 31 31 31 31 31 31 31 31 31 31 31 32 32 31 31 32 32 32 32 33 32 32 33 33 32 33 33
30 30 31 31 31 31 31 31 31 32 32 32 33 33 33 33 32 33 33 33 32 32 32 33 33 32 32 32 33 32 32 32 33 33 33 34 34 34 34 35 35 35 35
30 30 30 31 31 31 31 31 31 32 32 33 33 33 33 33 33 34 34 34 34 33 33 34 34 34 33 33 33 34 33 34 34 34 34 34 34 34 35 36 37 37 37
31 30 30 31 31 31 31 31 31 31 32 32 33 34 34 34 34 34 35 35 35 35 35 35 35 35 35 34 34 34 34 34 35 35 35 35 35 35 35 36 37 37 37
33 32 32 31 31 31 32 32 32 32 32 33 34 34 35 35 35 36 36 36 36 36 36 37 36 37 37 36 35 36 36 36 35 35 36 37 37 37 37 37 37 37 38
34 33 33 33 33 33 32 33 33 33 33 33 34 35 35 36 36 36 36 36 37 37 37 37 37 37 38 38 38 37 38 37 37 37 37 37 38 38 39 39 39 39 40
35 34 34 34 33 33 34 34 34 34 34 35 35 35 35 36 36 37 37 36 36 37 37 38 38 38 39 39 39 39 39 39 39 39 39 39 39 40 41 41 41 41 42
35 35 35 34 34 34 34 35 35 34 34 35 35 35 36 37 37 37 36 36 36 37 37 38 38 38 38 38 38 39 40 40 40 41 41 41 41 42 42 43 44 44 44
36 36 35 35 34 34 35 35 35 35 35 35 36 36 37 37 37 36 36 37 37 38 38 38 39 39 39 39 39 39 39 39 41 42 42 42 43 44 45 45 45 45 46
37 36 36 36 35 35 35 35 35 35 36 36 36 37 38 38 38 37 37 38 38 38 38 39 40 39 39 40 40 40 40 40 40 42 42 43 44 44 45 46 46 45 47
37 37 36 36 36 36 36 36 36 35 35 36 36 37 38 38 39 40 39 39 38 38 38 39 40 40 40 40 41 41 41 42 41 41 41 42 44 45 47 48 47 46 46
Wind_Direction
250 248 248 249 249 249 248 246 243 238 235 233 231 230 231 231 231 231 233 234 236 235 233 234 235 233 229 227 226 224 224 225 226 224 221 223 225 227 230 232 231 223 211
251 249 248 249 249 249 248 247 244 240 237 235 233 232 233 234 234 234 235 237 238 238 238 237 237 236 234 234 231 229 230 232 234 232 229 230 232 234 235 240 243 244 238
251 250 249 248 249 249 247 247 244 241 238 237 235 234 235 235 237 238 237 238 240 239 241 240 240 238 237 237 235 233 235 236 237 237 235 235 236 237 240 245 247 246 250
251 250 248 247 247 247 246 245 243 242 240 238 236 236 237 238 239 239 239 239 240 240 240 241 242 241 241 240 239 237 238 239 239 239 239 239 240 241 244 247 247 247 251
250 249 247 247 246 246 246 245 244 242 241 239 238 237 237 238 239 240 241 240 241 242 241 241 243 242 242 241 241 242 242 241 242 241 241 241 242 243 246 247 247 247 250
249 248 248 247 247 247 247 246 245 244 242 241 239 238 237 237 238 239 241 241 241 242 242 243 243 243 243 243 243 244 245 244 243 243 243 243 244 244 245 246 247 248 250
250 249 249 249 249 248 248 247 246 245 243 241 240 240 239 239 239 240 241 242 242 242 242 242 243 244 243 243 244 244 246 246 246 245 244 244 245 246 247 248 249 249 251
250 250 250 249 248 248 249 249 248 247 245 243 242 241 241 241 241 242 242 244 245 245 244 243 244 244 244 244 245 246 247 247 245 246 245 245 245 246 247 249 249 251 251
250 250 249 248 247 248 249 249 249 248 246 245 244 243 242 242 242 243 243 245 246 247 247 244 244 245 245 247 247 248 250 248 246 247 246 246 246 247 248 249 250 251 253
250 249 249 250 249 248 249 249 249 248 247 246 245 244 243 243 243 243 244 246 246 248 248 246 245 245 246 247 249 250 251 251 249 249 248 248 247 248 249 249 250 251 252
252 251 249 250 250 249 250 249 248 248 248 247 246 244 243 243 243 243 244 246 247 248 248 247 248 248 247 249 250 251 252 252 252 250 249 250 249 249 250 250 251 252 253
253 252 251 251 250 249 249 249 247 247 248 247 246 246 245 245 244 244 245 246 246 247 248 248 248 248 248 249 251 253 253 252 252 252 251 251 251 250 250 251 251 252 254
254 254 253 252 251 251 250 248 248 247 247 247 246 247 247 247 247 247 247 247 248 249 249 249 249 250 250 251 251 252 254 254 252 252 251 251 252 251 251 252 252 252 253
254 254 253 253 253 252 251 250 248 248 248 248 247 247 248 248 249 249 249 249 250 250 250 251 252 253 253 252 252 252 253 254 254 253 252 251 252 252 252 252 253 253 253
254 254 254 253 253 252 251 250 249 248 248 248 247 247 248 248 249 250 250 250 251 251 251 252 252 253 253 253 253 253 253 253 254 255 253 252 252 253 252 252 253 254 253
253 254 254 253 253 253 251 250 249 248 248 248 248 248 248 248 249 250 250 250 251 251 251 252 251 253 253 253 254 253 254 255 255 255 255 253 253 253 252 252 253 255 255
254 255 254 253 253 252 251 251 250 249 249 249 248 248 248 247 248 250 250 251 251 252 252 252 253 254 254 254 254 254 255 256 257 256 257 256 255 254 253 253 254 255 255
255 255 254 253 253 252 251 250 250 249 250 250 249 248 248 247 248 249 250 251 252 252 253 253 254 255 254 255 255 255 255 256 257 257 256 257 255 255 254 254 255 256 257
254 254 254 254 253 252 250 249 249 250 251 251 250 249 248 249 249 250 251 251 252 252 253 254 255 256 255 256 256 256 256 256 257 257 256 256 256 255 255 254 256 257 258
252 253 253 253 252 251 249 248 249 251 252 252 251 250 249 250 250 251 252 252 252 253 253 254 255 256 256 256 257 257 257 256 256 257 258 257 256 256 256 256 256 257 258
251 252 252 252 252 251 250 248 250 252 254 254 252 251 251 250 250 251 252 253 253 253 253 254 254 255 256 256 258 258 257 257 257 258 258 258 258 257 258 258 258 259 259
251 252 252 252 252 251 250 249 250 252 253 254 253 252 252 251 250 250 253 253 254 254 254 254 255 255 256 257 258 258 258 259 259 259 258 260 260 259 258 259 259 261 261
250 250 250 252 252 252 250 250 251 253 253 254 253 252 252 251 251 253 254 254 255 256 255 254 255 256 257 258 259 260 259 259 260 259 260 260 260 259 259 259 259 260 262
250 250 249 250 252 252 251 250 251 253 254 254 254 253 252 252 251 254 256 255 256 257 255 254 255 257 258 258 260 261 262 262 262 260 260 261 261 261 261 262 261 261 262
249 249 248 249 250 251 251 251 252 254 254 254 254 253 252 252 252 254 256 256 258 257 256 255 256 258 258 259 260 261 262 263 264 264 263 263 263 263 262 262 263 262 263
249 249 249 248 249 250 251 251 252 253 254 254 254 254 253 254 254 255 257 258 258 257 256 256 257 258 258 259 260 261 262 264 265 266 266 265 264 264 264 263 264 264 265
Height
5828 5829 5830 5831 5832 5833 5833 5835 5836 5837 5838 5840 5841 5843 5844 5846 5847 5848 5850 5851 5853 5854 5855 5857 5858 5859 5860 5861 5862 5864 5865 5866 5867 5867 5868 5869 5870 5871 5871 5871 5872 5872 5872
5825 5826 5827 5828 5829 5830 5831 5832 5833 5834 5836 5837 5839 5840 5842 5844 5845 5846 5848 5849 5851 5852 5854 5855 5856 5857 5858 5859 5861 5862 5863 5864 5865 5866 5867 5868 5869 5870 5870 5871 5871 5871 5872
5821 5823 5823 5824 5825 5826 5827 5829 5830 5831 5833 5834 5836 5838 5839 5841 5843 5844 5845 5847 5848 5850 5852 5853 5854 5855 5856 5858 5859 5860 5862 5863 5864 5865 5866 5867 5868 5869 5869 5870 5870 5871 5871
5817 5819 5820 5821 5822 5823 5824 5825 5827 5828 5830 5831 5833 5835 5836 5838 5840 5841 5843 5844 5846 5847 5849 5850 5852 5853 5854 5855 5857 5858 5859 5861 5862 5863 5864 5865 5866 5867 5868 5869 5869 5870 5870
5813 5814 5816 5817 5818 5819 5820 5821 5823 5824 5826 5828 5829 5831 5833 5835 5836 5838 5839 5841 5843 5844 5846 5847 5849 5850 5852 5853 5854 5856 5857 5858 5859 5861 5862 5863 5864 5865 5866 5867 5868 5868 5869
5808 5810 5811 5813 5814 5815 5816 5817 5819 5820 5822 5824 5826 5827 5829 5831 5832 5834 5836 5838 5839 5841 5842 5844 5845 5847 5848 5850 5851 5852 5854 5855 5856 5858 5859 5861 5862 5863 5864 5865 5866 5867 5867
5804 5805 5807 5808 5809 5811 5812 5813 5814 5816 5818 5820 5822 5823 5825 5827 5828 5830 5832 5834 5835 5837 5839 5840 5842 5843 5845 5846 5847 5849 5850 5852 5853 5855 5856 5858 5859 5860 5861 5862 5864 5864 5865
5799 5800 5802 5803 5804 5806 5807 5809 5810 5811 5813 5815 5817 5819 5820 5822 5824 5826 5828 5830 5831 5833 5834 5836 5838 5839 5841 5842 5844 5845 5847 5848 5849 5851 5853 5854 5855 5857 5858 5860 5861 5862 5863
5793 5795 5796 5798 5799 5801 5802 5804 5805 5806 5808 5810 5812 5814 5816 5818 5819 5821 5823 5825 5827 5828 5830 5832 5833 5835 5837 5838 5840 5841 5843 5844 5846 5847 5849 5850 5852 5853 5855 5856 5858 5859 5860
5787 5789 5790 5792 5793 5795 5797 5798 5800 5801 5803 5804 5806 5808 5810 5812 5814 5816 5818 5820 5822 5824 5825 5827 5829 5831 5832 5834 5835 5837 5838 5840 5841 5843 5845 5846 5848 5849 5851 5852 5854 5855 5856
5781 5783 5784 5786 5787 5789 5791 5792 5794 5796 5797 5799 5801 5803 5805 5807 5809 5811 5813 5815 5817 5819 5820 5822 5824 5826 5827 5829 5831 5832 5834 5835 5837 5838 5840 5842 5844 5845 5847 5848 5850 5851 5852
5775 5776 5778 5779 5781 5783 5784 5786 5788 5790 5791 5793 5795 5797 5799 5801 5803 5805 5807 5809 5811 5813 5815 5817 5819 5821 5822 5824 5826 5827 5828 5830 5832 5834 5835 5837 5839 5841 5842 5844 5845 5847 5848
5768 5769 5771 5772 5774 5776 5777 5779 5781 5783 5785 5787 5789 5791 5793 5795 5797 5799 5801 5803 5805 5807 5810 5811 5813 5815 5817 5818 5820 5821 5823 5825 5827 5828 5830 5832 5834 5835 5837 5839 5840 5842 5843
5761 5763 5764 5765 5767 5768 5770 5772 5774 5777 5779 5781 5783 5785 5787 5789 5791 5793 5795 5797 5799 5801 5803 5805 5807 5809 5811 5812 5814 5816 5817 5819 5820 5822 5824 5826 5828 5830 5832 5833 5835 5836 5838
5754 5756 5757 5758 5759 5761 5763 5765 5767 5769 5771 5774 5775 5778 5780 5782 5784 5787 5789 5791 5793 5795 5797 5799 5801 5802 5804 5806 5808 5809 5811 5812 5814 5816 5818 5820 5822 5824 5825 5827 5829 5830 5832
5747 5748 5749 5751 5752 5753 5755 5757 5759 5762 5764 5766 5768 5770 5773 5775 5777 5780 5782 5784 5786 5788 5790 5792 5794 5796 5797 5799 5801 5802 5804 5805 5807 5809 5811 5813 5815 5817 5819 5821 5822 5824 5825
5740 5741 5742 5743 5744 5746 5748 5750 5752 5754 5756 5759 5761 5763 5765 5768 5770 5772 5775 5777 5779 5781 5783 5785 5787 5788 5790 5792 5794 5795 5797 5798 5800 5802 5803 5806 5808 5810 5812 5814 5815 5817 5818
5732 5733 5734 5735 5737 5738 5740 5742 5745 5747 5749 5751 5753 5755 5757 5760 5762 5765 5767 5769 5771 5773 5775 5777 5779 5781 5783 5785 5786 5788 5789 5791 5793 5794 5796 5798 5800 5802 5804 5806 5808 5809 5811
5724 5725 5726 5727 5729 5731 5733 5735 5737 5739 5741 5743 5745 5747 5749 5752 5754 5757 5759 5761 5763 5765 5767 5769 5771 5773 5775 5777 5779 5780 5782 5784 5785 5787 5789 5791 5793 5795 5797 5798 5800 5801 5803
5715 5717 5718 5720 5721 5723 5725 5728 5730 5732 5733 5735 5737 5739 5741 5744 5746 5748 5750 5753 5755 5757 5759 5761 5763 5765 5767 5768 5770 5772 5774 5776 5778 5779 5781 5783 5785 5787 5789 5790 5791 5793 5795
5707 5708 5710 5712 5714 5716 5718 5720 5722 5724 5725 5727 5729 5731 5733 5735 5737 5739 5742 5744 5746 5748 5750 5752 5754 5756 5758 5760 5762 5764 5765 5768 5770 5772 5773 5775 5777 5778 5780 5781 5783 5784 5786
5698 5700 5702 5704 5705 5707 5710 5712 5714 5716 5717 5719 5720 5722 5724 5726 5729 5731 5733 5736 5737 5739 5741 5743 5745 5747 5749 5751 5753 5755 5757 5759 5761 5763 5765 5766 5767 5769 5770 5772 5773 5775 5776
5689 5691 5693 5695 5697 5699 5701 5703 5705 5707 5708 5710 5711 5713 5715 5718 5720 5723 5725 5727 5729 5730 5732 5734 5736 5738 5740 5742 5744 5746 5747 5750 5752 5754 5755 5757 5758 5759 5760 5762 5763 5764 5766
5680 5682 5684 5686 5689 5691 5692 5695 5697 5698 5700 5702 5703 5705 5707 5709 5711 5714 5716 5718 5720 5721 5723 5725 5727 5729 5731 5733 5734 5736 5738 5740 5742 5744 5745 5746 5747 5749 5750 5751 5752 5753 5754
5671 5673 5675 5678 5679 5682 5684 5686 5688 5689 5691 5693 5695 5696 5698 5700 5702 5705 5707 5709 5710 5711 5713 5715 5717 5719 5721 5723 5725 5726 5728 5730 5731 5733 5735 5736 5737 5738 5739 5739 5741 5742 5742
5661 5664 5666 5668 5670 5672 5675 5677 5679 5681 5682 5684 5686 5688 5690 5692 5693 5696 5698 5699 5700 5702 5703 5705 5708 5710 5711 5713 5715 5716 5717 5719 5721 5722 5723 5725 5726 5727 5727 5728 5729 5730 5730